Norfork Lake Weather Center

Moon Phase Calendar



Norfork Lake Water Level
Online Cameras

 


      

Current Conditions in Baxter
12/8/2023 10:09:21 AM

54°F
Feels Like 51
Clouds
Humidity
61%
Pressure
29.8"
Wind
3 mph (SSE)
Dew Point
40°F
UV Index
1/10 (Low)
Visibility
6 mi

Hourly Forecast

Date & Time Fri, Dec 8
10:00 AM
Fri, Dec 8
11:00 AM
Fri, Dec 8
12:00 PM
Fri, Dec 8
1:00 PM
Fri, Dec 8
2:00 PM
Fri, Dec 8
3:00 PM
Fri, Dec 8
4:00 PM
Fri, Dec 8
5:00 PM
Fri, Dec 8
6:00 PM
Fri, Dec 8
7:00 PM
Fri, Dec 8
8:00 PM
Fri, Dec 8
9:00 PM
Fri, Dec 8
10:00 PM
Fri, Dec 8
11:00 PM
Sat, Dec 9
12:00 AM
Sat, Dec 9
1:00 AM
Sat, Dec 9
2:00 AM
Sat, Dec 9
3:00 AM
Sat, Dec 9
4:00 AM
Sat, Dec 9
5:00 AM
Sat, Dec 9
6:00 AM
Sat, Dec 9
7:00 AM
Sat, Dec 9
8:00 AM
Sat, Dec 9
9:00 AM
Sat, Dec 9
10:00 AM
Sat, Dec 9
11:00 AM
Sat, Dec 9
12:00 PM
Sat, Dec 9
1:00 PM
Sat, Dec 9
2:00 PM
Sat, Dec 9
3:00 PM
Sat, Dec 9
4:00 PM
Sat, Dec 9
5:00 PM
Sat, Dec 9
6:00 PM
Sat, Dec 9
7:00 PM
Sat, Dec 9
8:00 PM
Sat, Dec 9
9:00 PM
Sat, Dec 9
10:00 PM
Sat, Dec 9
11:00 PM
Sun, Dec 10
12:00 AM
Sun, Dec 10
1:00 AM
Sun, Dec 10
2:00 AM
Sun, Dec 10
3:00 AM
Sun, Dec 10
4:00 AM
Sun, Dec 10
5:00 AM
Sun, Dec 10
6:00 AM
Sun, Dec 10
7:00 AM
Sun, Dec 10
8:00 AM
Sun, Dec 10
9:00 AM
Condition
Clouds

Clouds

Clouds

Clouds

Clouds

Clouds

Clouds

Clouds

Clouds

Clouds

Clouds

Clouds

Rain

Rain

Rain

Rain

Clouds

Clouds

Clouds

Clouds

Clouds

Clouds

Clouds

Clouds

Clouds

Clouds

Clouds

Clouds

Clouds

Clouds

Clouds

Clouds

Clouds

Clouds

Clouds

Clouds

Clouds

Clouds

Clouds

Clear

Clear

Clear

Clear

Clear

Clear

Clear

Clear

Clear
Temperature 54°F54°F56°F56°F57°F58°F58°F58°F58°F58°F58°F59°F61°F63°F63°F63°F58°F54°F50°F49°F48°F47°F48°F51°F54°F57°F59°F59°F60°F59°F55°F51°F48°F46°F45°F43°F42°F40°F39°F38°F37°F36°F36°F35°F34°F33°F33°F36°F
Feels Like 51°F52°F54°F55°F56°F57°F58°F58°F58°F58°F58°F59°F61°F63°F63°F63°F58°F53°F49°F47°F46°F45°F46°F49°F52°F55°F57°F57°F57°F56°F53°F48°F44°F41°F39°F37°F35°F34°F33°F31°F30°F29°F28°F27°F26°F25°F26°F28°F
Cloudiness 88%89%90%95%98%100%100%100%100%100%100%100%100%100%90%90%45%33%25%21%28%82%90%93%72%67%60%100%100%71%65%63%69%100%97%90%76%61%52%0%0%0%0%0%0%0%0%0%
Visibility 6 mi6 mi6 mi6 mi6 mi6 mi6 mi6 mi6 mi6 mi6 mi6 mi6 mi6 mi6 mi6 mi6 mi6 mi6 mi6 mi6 mi6 mi6 mi6 mi6 mi6 mi6 mi6 mi6 mi6 mi6 mi6 mi6 mi6 mi6 mi6 mi6 mi6 mi6 mi6 mi6 mi6 mi6 mi6 mi6 mi6 mi6 mi6 mi
Precipitation 0%0%0%2%2%2%0%2%2%32%26%8%27%31%38%37%31%28%26%17%13%4%4%4%2%2%2%9%11%9%9%9%9%0%0%0%0%0%0%0%0%0%0%0%0%0%0%0%
Humidity 61%65%69%73%79%84%84%87%90%92%92%91%90%84%82%78%82%83%90%93%95%95%91%79%68%57%48%45%41%43%50%53%53%54%56%57%56%57%57%58%59%59%58%60%60%62%61%54%
Dew Point 40°F43°F46°F48°F50°F53°F53°F54°F55°F55°F56°F57°F58°F58°F57°F56°F53°F49°F47°F46°F46°F45°F45°F44°F43°F42°F39°F37°F36°F36°F36°F34°F32°F31°F30°F29°F27°F26°F25°F25°F24°F23°F22°F22°F21°F21°F21°F20°F
Pressure 29.8"29.8"29.8"29.77"29.77"29.74"29.74"29.74"29.74"29.74"29.74"29.74"29.74"29.74"29.74"29.77"29.8"29.83"29.85"29.85"29.91"29.91"29.94"29.94"29.97"29.94"29.94"29.91"29.91"29.91"29.94"30"30.03"30.06"30.09"30.09"30.09"30.12"30.12"30.12"30.15"30.15"30.15"30.18"30.18"30.21"30.24"30.24"
Wind Speed 10.3 mph10.4 mph10.3 mph10.2 mph10 mph9.9 mph10.7 mph11.2 mph11 mph11.8 mph11.7 mph10.7 mph11.4 mph12.9 mph12.6 mph11.4 mph9.5 mph7.5 mph4.9 mph3.9 mph4.8 mph4.1 mph4 mph5.3 mph5.8 mph6 mph7.4 mph8.4 mph9 mph10.1 mph10.8 mph10.5 mph10.9 mph11.1 mph11.2 mph11 mph10.9 mph10.7 mph10.6 mph10.7 mph10.7 mph10.4 mph10.5 mph10 mph9.8 mph9.9 mph8.6 mph10.8 mph
Wind
Direction
174°
S
181°
S
187°
S
183°
S
175°
S
171°
S
173°
S
182°
S
173°
S
172°
S
173°
S
180°
S
186°
S
198°
SSW
216°
SW
236°
SW
266°
W
279°
W
295°
WNW
302°
WNW
321°
NW
331°
NNW
329°
NNW
335°
NNW
339°
NNW
336°
NNW
337°
NNW
339°
NNW
342°
NNW
336°
NNW
333°
NNW
329°
NNW
327°
NNW
328°
NNW
326°
NW
327°
NNW
326°
NW
324°
NW
323°
NW
321°
NW
319°
NW
316°
NW
315°
NW
313°
NW
313°
NW
312°
NW
309°
NW
313°
NW

Daily Forecast

Date High Low Precip. Humidity
Today
Dec 8

Rain
63 °F
47 °F
32%
69%
Saturday
Dec 9

Rain
63 °F
40 °F
38%
48%
Sunday
Dec 10

Clear
47 °F
33 °F
0%
34%
Monday
Dec 11

Clouds
54 °F
31 °F
0%
31%
Tuesday
Dec 12

Clouds
54 °F
37 °F
0%
39%
Wednesday
Dec 13

Clouds
51 °F
40 °F
0%
52%
Thursday
Dec 14

Clouds
54 °F
36 °F
0%
46%
Friday
Dec 15

Rain
53 °F
37 °F
100%
59%
Saturday
Dec 16

Rain
48 °F
42 °F
97%
78%
Sunday
Dec 17

Clouds
44 °F
36 °F
0%
64%
Monday
Dec 18

Clouds
51 °F
36 °F
0%
58%
Tuesday
Dec 19

Rain
55 °F
40 °F
27%
72%
Wednesday
Dec 20

Clouds
52 °F
38 °F
0%
38%
Thursday
Dec 21

Clouds
42 °F
32 °F
0%
56%
Friday
Dec 22

Clouds
42 °F
28 °F
0%
40%
Saturday
Dec 23

Clear
47 °F
23 °F
0%
33%

Temperature 8-14 Day Outlook



Precipitation 8-14 Day Outlook






About Us
Contact Us
Site Map
Search Site
Advertise With Us
   
Norfork.USLakes.info
THE NORFORK LAKE WEBSITE

Copyright 2023, Lakes Online
Privacy    |    Legal